When you browse on this site, cookies collect data to enhance your experience and personalize the content and advertising you see.
Visit our Privacy Policy to learn more. By continuing to use the site, you agree to this use of cookies and data.
  • In France
  • List of Countries
  • For 7 days
  • Water Temperature
  • Weather Map
  • Weather Widgets
  • user-avatar
    Login

    Hourly Weather Harare

    Today, 4 June, Thursday

    Time Temperature Precipitation Wind Pressure Humidity
    00:00 +10°C° 0 mm 2 mps 640 mmHg 82%
    01:00 +10°C° 0 mm 2 mps 640 mmHg 86%
    02:00 +9°C° 0 mm 2 mps 640 mmHg 90%
    03:00 +9°C° 0 mm 2 mps 640 mmHg 91%
    04:00 +9°C° 0 mm 2 mps 640 mmHg 92%
    05:00 +10°C° 0 mm 1 mps 640 mmHg 92%
    06:00 +10°C° 0 mm 2 mps 640 mmHg 86%
    07:00 +13°C° 0 mm 2 mps 641 mmHg 80%
    08:00 +14°C° 0 mm 2 mps 642 mmHg 74%
    09:00 +17°C° 0 mm 2 mps 642 mmHg 61%
    10:00 +19°C° 0 mm 2 mps 643 mmHg 49%
    11:00 +21°C° 0 mm 2 mps 643 mmHg 37%
    12:00 +23°C° 0 mm 2 mps 643 mmHg 33%
    13:00 +24°C° 0 mm 2 mps 643 mmHg 29%
    14:00 +25°C° 0 mm 2 mps 642 mmHg 25%
    15:00 +24°C° 0 mm 2 mps 642 mmHg 27%
    16:00 +23°C° 0 mm 2 mps 641 mmHg 29%
    17:00 +20°C° 0 mm 2 mps 641 mmHg 32%
    18:00 +18°C° 0 mm 2 mps 641 mmHg 42%
    19:00 +16°C° 0 mm 2 mps 641 mmHg 52%
    20:00 +13°C° 0 mm 2 mps 640 mmHg 62%
    21:00 +13°C° 0 mm 2 mps 640 mmHg 68%
    22:00 +12°C° 0 mm 2 mps 640 mmHg 74%
    23:00 +10°C° 0 mm 2 mps 640 mmHg 80%

    Tomorrow, 5 June, Friday

    Time Temperature Precipitation Wind Pressure Humidity
    00:00 +10°C° 0 mm 2 mps 640 mmHg 84%
    01:00 +10°C° 0 mm 2 mps 640 mmHg 87%
    02:00 +9°C° 0 mm 2 mps 640 mmHg 90%
    03:00 +9°C° 0 mm 2 mps 640 mmHg 91%
    04:00 +9°C° 0 mm 2 mps 640 mmHg 91%
    05:00 +9°C° 0 mm 2 mps 640 mmHg 92%
    06:00 +10°C° 0 mm 2 mps 641 mmHg 86%
    07:00 +13°C° 0 mm 2 mps 642 mmHg 80%
    08:00 +14°C° 0 mm 2 mps 642 mmHg 74%
    09:00 +17°C° 0 mm 2 mps 643 mmHg 62%
    10:00 +20°C° 0 mm 2 mps 643 mmHg 50%
    11:00 +23°C° 0 mm 1 mps 644 mmHg 38%
    12:00 +24°C° 0 mm 1 mps 643 mmHg 36%
    13:00 +24°C° 0 mm 1 mps 642 mmHg 34%
    14:00 +24°C° 0 mm 1 mps 642 mmHg 31%
    15:00 +23°C° 0 mm 1 mps 641 mmHg 34%
    16:00 +22°C° 0 mm 1 mps 641 mmHg 36%
    17:00 +19°C° 0 mm 0 mps 641 mmHg 38%
    18:00 +21°C° 0 mm 1 mps 641 mmHg 40%
    19:00 +19°C° 0 mm 2 mps 642 mmHg 42%
    20:00 +18°C° 0 mm 2 mps 642 mmHg 44%
    21:00 +17°C° 0.1 mm 2 mps 642 mmHg 51%
    22:00 +16°C° 0.1 mm 3 mps 642 mmHg 57%
    23:00 +14°C° 0.1 mm 3 mps 642 mmHg 64%

    Day after tomorrow, 6 June, Saturday

    Time Temperature Precipitation Wind Pressure Humidity
    00:00 +13°C° 0.1 mm 3 mps 641 mmHg 69%
    01:00 +14°C° 0.1 mm 2 mps 641 mmHg 73%
    02:00 +13°C° 0.1 mm 2 mps 641 mmHg 77%
    03:00 +12°C° 0 mm 2 mps 641 mmHg 81%
    04:00 +12°C° 0 mm 2 mps 640 mmHg 84%
    05:00 +10°C° 0 mm 2 mps 640 mmHg 87%
    06:00 +12°C° 0 mm 1 mps 641 mmHg 80%
    07:00 +13°C° 0 mm 1 mps 642 mmHg 74%
    08:00 +15°C° 0 mm 1 mps 642 mmHg 67%
    09:00 +19°C° 0 mm 1 mps 643 mmHg 56%
    10:00 +22°C° 0 mm 1 mps 644 mmHg 45%
    11:00 +23°C° 0 mm 0 mps 645 mmHg 34%
    12:00 +24°C° 0 mm 1 mps 644 mmHg 33%
    13:00 +23°C° 0 mm 1 mps 643 mmHg 33%
    14:00 +21°C° 0 mm 2 mps 642 mmHg 32%
    15:00 +20°C° 0 mm 2 mps 642 mmHg 36%
    16:00 +20°C° 0 mm 2 mps 642 mmHg 40%
    17:00 +20°C° 0 mm 1 mps 641 mmHg 44%
    18:00 +17°C° 0.1 mm 2 mps 641 mmHg 54%
    19:00 +15°C° 0.1 mm 2 mps 641 mmHg 64%
    20:00 +12°C° 0.1 mm 3 mps 641 mmHg 73%
    21:00 +12°C° 0 mm 3 mps 641 mmHg 75%
    22:00 +11°C° 0 mm 3 mps 641 mmHg 76%
    23:00 +10°C° 0 mm 3 mps 641 mmHg 77%

    7 June, Sunday

    Time Temperature Precipitation Wind Pressure Humidity
    00:00 +10°C° 0 mm 3 mps 641 mmHg 82%
    01:00 +9°C° 0 mm 3 mps 640 mmHg 86%
    02:00 +9°C° 0 mm 2 mps 640 mmHg 91%
    03:00 +9°C° 0 mm 3 mps 640 mmHg 90%
    04:00 +9°C° 0 mm 3 mps 640 mmHg 90%
    05:00 +9°C° 0 mm 3 mps 640 mmHg 90%
    06:00 +10°C° 0 mm 4 mps 641 mmHg 84%
    07:00 +11°C° 0 mm 4 mps 641 mmHg 78%
    08:00 +12°C° 0 mm 4 mps 642 mmHg 72%
    09:00 +14°C° 0 mm 4 mps 642 mmHg 61%
    10:00 +17°C° 0 mm 4 mps 643 mmHg 50%
    11:00 +19°C° 0 mm 4 mps 643 mmHg 39%
    12:00 +20°C° 0 mm 4 mps 643 mmHg 37%
    13:00 +21°C° 0 mm 4 mps 643 mmHg 36%
    14:00 +22°C° 0 mm 3 mps 642 mmHg 34%
    15:00 +20°C° 0 mm 4 mps 642 mmHg 40%
    16:00 +19°C° 0 mm 4 mps 641 mmHg 46%
    17:00 +17°C° 0 mm 4 mps 641 mmHg 52%
    18:00 +16°C° 0 mm 3 mps 641 mmHg 61%
    19:00 +13°C° 0 mm 3 mps 641 mmHg 71%
    20:00 +12°C° 0 mm 2 mps 641 mmHg 81%
    21:00 +12°C° 0 mm 2 mps 641 mmHg 84%
    22:00 +10°C° 0 mm 2 mps 641 mmHg 87%
    23:00 +10°C° 0 mm 2 mps 641 mmHg 90%

    8 June, Monday

    Time Temperature Precipitation Wind Pressure Humidity
    00:00 +9°C° 0 mm 2 mps 641 mmHg 90%
    01:00 +9°C° 0 mm 2 mps 640 mmHg 90%
    02:00 +9°C° 0 mm 3 mps 640 mmHg 91%
    03:00 +9°C° 0 mm 3 mps 640 mmHg 91%
    04:00 +8°C° 0 mm 2 mps 640 mmHg 91%
    05:00 +8°C° 0 mm 2 mps 640 mmHg 91%
    06:00 +9°C° 0 mm 2 mps 640 mmHg 84%
    07:00 +11°C° 0 mm 3 mps 641 mmHg 78%
    08:00 +12°C° 0 mm 3 mps 642 mmHg 71%
    09:00 +16°C° 0 mm 3 mps 642 mmHg 59%
    10:00 +18°C° 0 mm 3 mps 642 mmHg 48%
    11:00 +21°C° 0 mm 3 mps 643 mmHg 36%
    12:00 +22°C° 0 mm 3 mps 642 mmHg 33%
    13:00 +24°C° 0 mm 3 mps 642 mmHg 30%
    14:00 +24°C° 0 mm 3 mps 642 mmHg 28%
    15:00 +22°C° 0 mm 3 mps 641 mmHg 32%
    16:00 +21°C° 0 mm 3 mps 641 mmHg 36%
    17:00 +20°C° 0 mm 3 mps 641 mmHg 40%
    18:00 +18°C° 0 mm 3 mps 641 mmHg 44%
    19:00 +17°C° 0 mm 3 mps 641 mmHg 49%
    20:00 +15°C° 0 mm 2 mps 641 mmHg 54%
    21:00 +14°C° 0 mm 2 mps 641 mmHg 58%
    22:00 +13°C° 0 mm 2 mps 640 mmHg 62%
    23:00 +12°C° 0 mm 2 mps 640 mmHg 66%

    9 June, Tuesday

    Time Temperature Precipitation Wind Pressure Humidity
    00:00 +12°C° 0 mm 2 mps 640 mmHg 68%
    01:00 +10°C° 0 mm 2 mps 640 mmHg 71%
    02:00 +10°C° 0 mm 1 mps 639 mmHg 73%
    03:00 +10°C° 0 mm 1 mps 639 mmHg 73%
    04:00 +9°C° 0 mm 1 mps 639 mmHg 74%
    05:00 +9°C° 0 mm 1 mps 639 mmHg 74%
    06:00 +11°C° 0 mm 1 mps 640 mmHg 65%
    07:00 +12°C° 0 mm 2 mps 641 mmHg 57%
    08:00 +14°C° 0 mm 2 mps 641 mmHg 48%
    09:00 +17°C° 0 mm 2 mps 642 mmHg 41%
    10:00 +19°C° 0 mm 2 mps 642 mmHg 34%
    11:00 +21°C° 0 mm 3 mps 643 mmHg 28%
    12:00 +22°C° 0 mm 3 mps 642 mmHg 26%
    13:00 +24°C° 0 mm 3 mps 642 mmHg 24%
    14:00 +25°C° 0 mm 3 mps 641 mmHg 23%
    15:00 +24°C° 0 mm 3 mps 641 mmHg 27%
    16:00 +21°C° 0 mm 3 mps 640 mmHg 30%
    17:00 +20°C° 0 mm 2 mps 640 mmHg 34%
    18:00 +18°C° 0 mm 2 mps 640 mmHg 42%
    19:00 +16°C° 0 mm 2 mps 640 mmHg 49%
    20:00 +14°C° 0 mm 2 mps 639 mmHg 56%
    21:00 +13°C° 0 mm 2 mps 639 mmHg 60%
    22:00 +13°C° 0 mm 2 mps 639 mmHg 64%
    23:00 +12°C° 0 mm 2 mps 639 mmHg 68%
    Show more